Weather Data 2026-08-31

Time Wind Dr Wind Spd
mph
Wind Gust
mph
Hum In
%
Humid
%
TempI
F
Temp
F
Raw Bar
in
Tot Rain
in
UV Solar
W/sqm
DailyRain
in
HourRain
in
24HrRain
in
RainRate
in
08/31/26 2:16:18 PM 30 4.0 15.0 66 27 79.1 90.8 29.892 7.41 4.5 833 0.00 0.00 0.00 0.00
08/31/26 2:17:29 PM 32 4.0 15.0 66 26 79.1 90.8 29.893 7.41 4.5 833 0.00 0.00 0.00 0.00
08/31/26 2:18:21 PM 31 4.0 15.0 66 27 79.1 90.9 29.894 7.41 4.5 833 0.00 0.00 0.00 0.00
08/31/26 2:19:32 PM 28 8.0 15.0 66 29 79.1 90.9 29.894 7.41 4.4 833 0.00 0.00 0.00 0.00
08/31/26 2:20:25 PM 31 5.0 15.0 66 29 79.1 90.9 29.891 7.41 4.4 817 0.00 0.00 0.00 0.00
08/31/26 2:21:33 PM 31 8.0 15.0 66 29 79.1 90.8 29.891 7.41 4.4 814 0.00 0.00 0.00 0.00
08/31/26 2:22:25 PM 22 5.0 15.0 66 29 79.2 90.8 29.891 7.41 4.4 814 0.00 0.00 0.00 0.00
08/31/26 2:23:18 PM 31 8.0 15.0 66 29 79.1 90.8 29.894 7.41 4.4 816 0.00 0.00 0.00 0.00
08/31/26 2:24:29 PM 32 12.0 15.0 66 30 79.2 90.8 29.890 7.41 4.3 816 0.00 0.00 0.00 0.00
08/31/26 2:25:22 PM 31 10.0 15.0 66 29 79.2 90.8 29.891 7.41 4.3 817 0.00 0.00 0.00 0.00
08/31/26 2:26:29 PM 31 4.0 15.0 66 29 79.2 90.7 29.888 7.41 4.3 817 0.00 0.00 0.00 0.00
08/31/26 2:27:19 PM 32 4.0 15.0 66 30 79.2 90.8 29.884 7.41 4.3 817 0.00 0.00 0.00 0.00
08/31/26 2:28:33 PM 31 4.0 15.0 66 28 79.2 90.8 29.885 7.41 4.3 817 0.00 0.00 0.00 0.00
08/31/26 2:29:25 PM 32 3.0 15.0 66 28 79.2 90.6 29.884 7.41 4.2 805 0.00 0.00 0.00 0.00
08/31/26 2:31:00 PM 28 5.0 15.0 66 28 79.2 90.5 29.884 7.41 4.2 805 0.00 0.00 0.00 0.00
08/31/26 2:31:29 PM 31 10.0 15.0 66 28 79.2 90.6 29.884 7.41 4.2 805 0.00 0.00 0.00 0.00
08/31/26 2:32:18 PM 32 9.0 15.0 66 28 79.2 90.7 29.886 7.41 4.2 805 0.00 0.00 0.00 0.00
08/31/26 2:33:29 PM 30 10.0 15.0 66 29 79.2 90.9 29.884 7.41 4.2 807 0.00 0.00 0.00 0.00
08/31/26 2:34:22 PM 31 10.0 15.0 66 28 79.2 90.9 29.886 7.41 4.2 807 0.00 0.00 0.00 0.00
08/31/26 2:35:33 PM 28 10.0 15.0 66 27 79.2 90.9 29.884 7.41 4.2 807 0.00 0.00 0.00 0.00
08/31/26 2:36:25 PM 34 9.0 15.0 66 27 79.3 90.9 29.883 7.41 4.2 803 0.00 0.00 0.00 0.00
08/31/26 2:37:18 PM 31 4.0 15.0 66 27 79.3 90.9 29.880 7.41 4.2 803 0.00 0.00 0.00 0.00
08/31/26 2:38:26 PM 32 5.0 15.0 66 26 79.3 90.8 29.883 7.41 4.2 784 0.00 0.00 0.00 0.00
08/31/26 2:39:19 PM 30 8.0 15.0 66 26 79.2 90.9 29.882 7.41 4.0 784 0.00 0.00 0.00 0.00
08/31/26 2:40:29 PM 29 5.0 15.0 66 27 79.3 91.1 29.882 7.41 4.0 786 0.00 0.00 0.00 0.00
08/31/26 2:41:22 PM 32 6.0 15.0 66 27 79.3 91.1 29.880 7.41 4.0 777 0.00 0.00 0.00 0.00
08/31/26 2:42:33 PM 32 3.0 15.0 66 27 79.3 91.2 29.882 7.41 4.0 779 0.00 0.00 0.00 0.00
08/31/26 2:43:19 PM 28 8.0 15.0 66 25 79.3 91.3 29.883 7.41 4.0 773 0.00 0.00 0.00 0.00
08/31/26 2:44:33 PM 31 2.0 15.0 66 26 79.3 91.3 29.882 7.41 3.9 773 0.00 0.00 0.00 0.00
08/31/26 2:45:26 PM 29 4.0 15.0 66 27 79.3 91.3 29.881 7.41 3.9 773 0.00 0.00 0.00 0.00
08/31/26 2:46:37 PM 31 3.0 15.0 66 27 79.3 91.5 29.881 7.41 3.9 772 0.00 0.00 0.00 0.00
08/31/26 2:47:26 PM 32 5.0 15.0 66 26 79.4 91.5 29.878 7.41 3.8 766 0.00 0.00 0.00 0.00
08/31/26 2:48:34 PM 32 10.0 15.0 66 27 79.3 91.5 29.879 7.41 3.8 766 0.00 0.00 0.00 0.00
08/31/26 2:49:27 PM 31 5.0 15.0 66 26 79.4 91.4 29.879 7.41 3.8 766 0.00 0.00 0.00 0.00
08/31/26 2:50:20 PM 32 5.0 15.0 66 26 79.4 91.4 29.878 7.41 3.8 766 0.00 0.00 0.00 0.00
08/31/26 2:51:30 PM 26 1.0 15.0 66 27 79.4 91.2 29.876 7.41 3.8 766 0.00 0.00 0.00 0.00
08/31/26 2:52:23 PM 32 2.0 15.0 66 27 79.4 91.1 29.877 7.41 3.8 766 0.00 0.00 0.00 0.00
08/31/26 2:53:28 PM 28 4.0 15.0 66 26 79.4 91.1 29.876 7.41 3.8 756 0.00 0.00 0.00 0.00
08/31/26 2:54:20 PM 30 5.0 15.0 66 25 79.4 91.1 29.878 7.41 3.7 756 0.00 0.00 0.00 0.00
08/31/26 2:55:34 PM 32 9.0 15.0 66 24 79.4 91.2 29.880 7.41 3.7 754 0.00 0.00 0.00 0.00
08/31/26 2:56:24 PM 31 8.0 15.0 66 24 79.5 91.2 29.880 7.41 3.7 754 0.00 0.00 0.00 0.00
08/31/26 2:57:17 PM 31 4.0 15.0 66 24 79.5 91.2 29.876 7.41 3.7 754 0.00 0.00 0.00 0.00
08/31/26 2:58:30 PM 30 8.0 15.0 66 25 79.5 91.3 29.878 7.41 3.7 751 0.00 0.00 0.00 0.00
08/31/26 2:59:17 PM 32 8.0 15.0 66 24 79.5 91.3 29.877 7.41 3.7 751 0.00 0.00 0.00 0.00
08/31/26 3:00:52 PM 32 2.0 15.0 66 24 79.5 91.4 29.879 7.41 3.7 751 0.00 0.00 0.00 0.00
08/31/26 3:01:21 PM 32 9.0 15.0 66 24 79.5 91.5 29.877 7.41 3.6 751 0.00 0.00 0.00 0.00
08/31/26 3:02:32 PM 31 3.0 15.0 66 23 79.6 91.6 29.879 7.41 3.5 740 0.00 0.00 0.00 0.00
08/31/26 3:03:24 PM 30 8.0 15.0 66 23 79.6 91.6 29.874 7.41 3.5 738 0.00 0.00 0.00 0.00
08/31/26 3:04:17 PM 31 5.0 15.0 66 24 79.6 91.7 29.873 7.41 3.5 737 0.00 0.00 0.00 0.00
08/31/26 3:05:25 PM 31 3.0 15.0 66 24 79.5 91.8 29.878 7.41 3.5 737 0.00 0.00 0.00 0.00
08/31/26 3:06:17 PM 30 9.0 15.0 66 25 79.6 91.9 29.877 7.41 3.4 731 0.00 0.00 0.00 0.00
08/31/26 3:07:28 PM 26 8.0 15.0 66 25 79.6 91.9 29.874 7.41 3.4 731 0.00 0.00 0.00 0.00
08/31/26 3:08:18 PM 32 9.0 15.0 66 24 79.6 91.8 29.874 7.41 3.4 731 0.00 0.00 0.00 0.00
08/31/26 3:09:32 PM 31 9.0 15.0 66 24 79.6 91.7 29.875 7.41 3.4 722 0.00 0.00 0.00 0.00
08/31/26 3:10:18 PM 31 9.0 15.0 66 24 79.6 91.7 29.878 7.41 3.4 722 0.00 0.00 0.00 0.00
08/31/26 3:11:32 PM 32 6.0 15.0 66 24 79.6 91.6 29.875 7.41 3.3 721 0.00 0.00 0.00 0.00
08/31/26 3:12:22 PM 30 4.0 15.0 66 24 79.6 91.5 29.870 7.41 3.3 712 0.00 0.00 0.00 0.00
08/31/26 3:13:36 PM 32 6.0 15.0 66 25 79.6 91.5 29.870 7.41 3.3 714 0.00 0.00 0.00 0.00
08/31/26 3:14:25 PM 29 5.0 15.0 66 25 79.6 91.4 29.868 7.41 3.2 714 0.00 0.00 0.00 0.00
08/31/26 3:15:36 PM 31 8.0 15.0 66 26 79.6 91.3 29.869 7.41 3.2 708 0.00 0.00 0.00 0.00
08/31/26 3:16:26 PM 32 4.0 15.0 66 26 79.7 91.2 29.868 7.41 3.2 708 0.00 0.00 0.00 0.00
08/31/26 3:17:18 PM 32 8.0 15.0 66 26 79.6 91.2 29.868 7.41 3.2 705 0.00 0.00 0.00 0.00
08/31/26 3:18:29 PM 32 5.0 15.0 66 25 79.7 91.2 29.867 7.41 3.2 703 0.00 0.00 0.00 0.00
08/31/26 3:19:22 PM 30 10.0 15.0 66 25 79.6 91.1 29.867 7.41 3.2 703 0.00 0.00 0.00 0.00
08/31/26 3:20:30 PM 30 5.0 15.0 66 24 79.7 91.1 29.868 7.41 3.1 703 0.00 0.00 0.00 0.00
08/31/26 3:21:22 PM 30 8.0 15.0 66 24 79.7 91.1 29.865 7.41 3.1 691 0.00 0.00 0.00 0.00
08/31/26 3:22:33 PM 30 11.0 15.0 66 26 79.7 91.1 29.865 7.41 3.1 691 0.00 0.00 0.00 0.00
08/31/26 3:23:23 PM 31 10.0 15.0 66 26 79.7 91.1 29.863 7.41 3.1 691 0.00 0.00 0.00 0.00
08/31/26 3:24:16 PM 31 11.0 15.0 66 27 79.7 91.2 29.863 7.41 3.1 691 0.00 0.00 0.00 0.00
08/31/26 3:25:26 PM 31 9.0 15.0 66 26 79.7 91.3 29.862 7.41 3.0 686 0.00 0.00 0.00 0.00
08/31/26 3:26:37 PM 32 10.0 15.0 66 26 79.7 91.3 29.863 7.41 3.0 684 0.00 0.00 0.00 0.00
08/31/26 3:27:27 PM 31 14.0 16.0 66 26 79.8 91.2 29.862 7.41 3.0 684 0.00 0.00 0.00 0.00
08/31/26 3:28:19 PM 31 12.0 20.0 66 26 79.7 91.2 29.860 7.41 3.0 684 0.00 0.00 0.00 0.00
08/31/26 3:29:30 PM 32 6.0 20.0 66 26 79.8 91.1 29.861 7.41 3.0 677 0.00 0.00 0.00 0.00
08/31/26 3:30:26 PM 34 4.0 20.0 66 25 79.7 91.0 29.864 7.41 2.9 677 0.00 0.00 0.00 0.00
08/31/26 3:31:34 PM 32 3.0 20.0 66 27 79.7 91.0 29.859 7.41 2.9 671 0.00 0.00 0.00 0.00
08/31/26 3:32:26 PM 32 4.0 20.0 66 27 79.8 91.0 29.860 7.41 2.9 670 0.00 0.00 0.00 0.00
08/31/26 3:33:16 PM 29 6.0 20.0 66 27 79.8 91.0 29.860 7.41 2.8 666 0.00 0.00 0.00 0.00
08/31/26 3:34:30 PM 28 4.0 20.0 66 25 79.8 91.0 29.863 7.41 2.8 663 0.00 0.00 0.00 0.00
08/31/26 3:35:19 PM 28 4.0 20.0 66 25 79.8 91.0 29.860 7.41 2.8 659 0.00 0.00 0.00 0.00
08/31/26 3:36:27 PM 32 12.0 20.0 66 26 79.8 91.0 29.860 7.41 2.8 659 0.00 0.00 0.00 0.00
08/31/26 3:37:20 PM 30 9.0 20.0 66 26 79.8 91.0 29.858 7.41 2.7 659 0.00 0.00 0.00 0.00
08/31/26 3:38:31 PM 32 6.0 20.0 66 26 79.8 90.9 29.860 7.41 2.7 659 0.00 0.00 0.00 0.00
08/31/26 3:39:24 PM 32 6.0 20.0 66 27 79.8 90.9 29.860 7.41 2.7 647 0.00 0.00 0.00 0.00
08/31/26 3:40:34 PM 30 5.0 20.0 66 27 79.8 90.8 29.858 7.41 2.7 649 0.00 0.00 0.00 0.00
08/31/26 3:41:27 PM 31 2.0 20.0 66 27 79.8 90.7 29.859 7.41 2.7 649 0.00 0.00 0.00 0.00
08/31/26 3:42:35 PM 31 3.0 20.0 66 27 79.8 90.7 29.859 7.41 2.7 643 0.00 0.00 0.00 0.00
08/31/26 3:43:28 PM 32 3.0 20.0 66 27 79.8 90.7 29.857 7.41 2.6 643 0.00 0.00 0.00 0.00
08/31/26 3:44:17 PM 31 8.0 20.0 66 27 79.8 90.8 29.860 7.41 2.6 643 0.00 0.00 0.00 0.00
08/31/26 3:45:31 PM 31 10.0 20.0 66 27 79.8 90.9 29.859 7.41 2.5 628 0.00 0.00 0.00 0.00
08/31/26 3:46:21 PM 31 6.0 20.0 66 26 79.8 91.0 29.858 7.41 2.5 626 0.00 0.00 0.00 0.00
08/31/26 3:47:29 PM 32 4.0 20.0 66 25 79.8 91.1 29.860 7.41 2.5 621 0.00 0.00 0.00 0.00
08/31/26 3:48:22 PM 32 3.0 20.0 66 25 79.9 91.1 29.859 7.41 2.5 621 0.00 0.00 0.00 0.00
08/31/26 3:49:32 PM 26 8.0 20.0 66 25 79.9 91.2 29.861 7.41 2.4 621 0.00 0.00 0.00 0.00
08/31/26 3:50:25 PM 32 6.0 20.0 66 25 79.9 91.2 29.859 7.41 2.4 612 0.00 0.00 0.00 0.00
08/31/26 3:51:15 PM 30 5.0 20.0 66 26 79.9 91.3 29.857 7.41 2.4 612 0.00 0.00 0.00 0.00
08/31/26 3:52:23 PM 28 5.0 20.0 66 26 79.9 91.3 29.859 7.41 2.4 610 0.00 0.00 0.00 0.00
08/31/26 3:53:37 PM 31 8.0 20.0 66 27 79.9 91.3 29.859 7.41 2.4 608 0.00 0.00 0.00 0.00
08/31/26 3:54:26 PM 32 5.0 20.0 66 25 79.9 91.3 29.855 7.41 2.3 608 0.00 0.00 0.00 0.00
08/31/26 3:55:19 PM 32 5.0 20.0 66 26 79.9 91.2 29.857 7.41 2.3 608 0.00 0.00 0.00 0.00
08/31/26 3:56:30 PM 31 8.0 20.0 66 28 79.9 91.0 29.857 7.41 2.3 599 0.00 0.00 0.00 0.00
08/31/26 3:57:23 PM 31 5.0 20.0 66 26 79.9 91.0 29.860 7.41 2.3 599 0.00 0.00 0.00 0.00
08/31/26 3:58:31 PM 30 4.0 20.0 66 26 79.9 91.0 29.858 7.41 2.3 591 0.00 0.00 0.00 0.00
08/31/26 3:59:21 PM 32 6.0 20.0 66 26 79.9 91.1 29.858 7.41 2.2 589 0.00 0.00 0.00 0.00
08/31/26 4:00:38 PM 31 11.0 20.0 66 25 79.9 91.1 29.858 7.41 2.2 582 0.00 0.00 0.00 0.00
08/31/26 4:01:27 PM 31 6.0 20.0 66 25 79.9 91.1 29.857 7.41 2.2 584 0.00 0.00 0.00 0.00
08/31/26 4:02:17 PM 31 8.0 20.0 66 25 79.9 91.1 29.858 7.41 2.2 584 0.00 0.00 0.00 0.00
08/31/26 4:03:25 PM 32 4.0 20.0 66 26 79.9 91.1 29.858 7.41 2.2 584 0.00 0.00 0.00 0.00
08/31/26 4:04:18 PM 31 3.0 20.0 66 26 79.9 91.1 29.858 7.41 2.2 584 0.00 0.00 0.00 0.00
08/31/26 4:05:29 PM 31 10.0 20.0 66 26 79.9 91.1 29.859 7.41 2.1 573 0.00 0.00 0.00 0.00
08/31/26 4:06:21 PM 28 14.0 20.0 66 26 79.9 91.0 29.856 7.41 2.1 573 0.00 0.00 0.00 0.00
08/31/26 4:07:32 PM 28 6.0 20.0 66 26 79.9 90.9 29.857 7.41 2.1 573 0.00 0.00 0.00 0.00
08/31/26 4:08:22 PM 31 6.0 20.0 66 26 79.9 90.8 29.858 7.41 2.1 573 0.00 0.00 0.00 0.00
08/31/26 4:09:33 PM 26 4.0 20.0 66 26 79.9 90.6 29.857 7.41 2.0 573 0.00 0.00 0.00 0.00
08/31/26 4:10:25 PM 29 9.0 20.0 66 27 80.0 90.6 29.859 7.41 2.0 573 0.00 0.00 0.00 0.00
08/31/26 4:11:18 PM 30 8.0 20.0 66 27 80.0 90.5 29.857 7.41 2.0 552 0.00 0.00 0.00 0.00
08/31/26 4:12:29 PM 31 3.0 20.0 66 28 80.0 90.5 29.856 7.41 2.0 552 0.00 0.00 0.00 0.00
08/31/26 4:13:22 PM 32 6.0 20.0 66 28 80.0 90.5 29.856 7.41 2.0 554 0.00 0.00 0.00 0.00
08/31/26 4:14:30 PM 30 6.0 20.0 66 27 80.0 90.4 29.856 7.41 1.9 554 0.00 0.00 0.00 0.00
08/31/26 4:15:22 PM 30 4.0 20.0 66 28 79.9 90.4 29.858 7.41 1.9 552 0.00 0.00 0.00 0.00
08/31/26 4:16:33 PM 31 6.0 20.0 66 27 80.0 90.5 29.856 7.41 1.9 552 0.00 0.00 0.00 0.00
08/31/26 4:17:23 PM 31 9.0 20.0 66 27 80.0 90.5 29.858 7.41 1.9 536 0.00 0.00 0.00 0.00
08/31/26 4:18:37 PM 31 8.0 20.0 66 27 80.0 90.6 29.858 7.41 1.8 533 0.00 0.00 0.00 0.00
08/31/26 4:19:23 PM 32 5.0 20.0 66 28 80.0 90.6 29.856 7.41 1.8 531 0.00 0.00 0.00 0.00
08/31/26 4:20:34 PM 30 4.0 20.0 66 27 80.0 90.6 29.859 7.41 1.8 527 0.00 0.00 0.00 0.00
08/31/26 4:21:27 PM 32 6.0 20.0 66 27 80.0 90.6 29.856 7.41 1.8 527 0.00 0.00 0.00 0.00
08/31/26 4:22:20 PM 31 9.0 20.0 66 26 80.0 90.6 29.857 7.41 1.8 526 0.00 0.00 0.00 0.00
08/31/26 4:23:31 PM 32 6.0 20.0 66 26 80.0 90.6 29.858 7.41 1.8 524 0.00 0.00 0.00 0.00
08/31/26 4:24:21 PM 31 5.0 20.0 66 26 80.0 90.6 29.855 7.41 1.7 524 0.00 0.00 0.00 0.00
08/31/26 4:25:32 PM 32 1.0 20.0 66 26 80.0 90.6 29.858 7.41 1.7 512 0.00 0.00 0.00 0.00
08/31/26 4:26:24 PM 29 6.0 20.0 66 26 80.0 90.6 29.856 7.41 1.7 512 0.00 0.00 0.00 0.00
08/31/26 4:27:35 PM 31 8.0 20.0 66 25 80.0 90.7 29.855 7.41 1.6 504 0.00 0.00 0.00 0.00
08/31/26 4:28:25 PM 30 2.0 20.0 66 25 80.0 90.7 29.855 7.41 1.6 503 0.00 0.00 0.00 0.00
08/31/26 4:29:18 PM 31 8.0 20.0 66 27 80.1 90.7 29.858 7.41 1.6 501 0.00 0.00 0.00 0.00
08/31/26 4:30:29 PM 31 10.0 20.0 66 27 80.0 90.7 29.859 7.41 1.6 501 0.00 0.00 0.00 0.00
08/31/26 4:31:19 PM 31 8.0 20.0 66 27 80.0 90.6 29.857 7.41 1.6 496 0.00 0.00 0.00 0.00
08/31/26 4:32:33 PM 32 5.0 20.0 66 27 80.0 90.4 29.855 7.41 1.6 490 0.00 0.00 0.00 0.00
08/31/26 4:33:22 PM 29 6.0 20.0 66 27 80.0 90.3 29.852 7.41 1.6 485 0.00 0.00 0.00 0.00
08/31/26 4:34:36 PM 31 8.0 20.0 66 27 80.0 90.1 29.856 7.41 1.6 487 0.00 0.00 0.00 0.00
08/31/26 4:35:23 PM 25 6.0 20.0 66 27 80.1 89.9 29.853 7.41 1.5 487 0.00 0.00 0.00 0.00
08/31/26 4:36:34 PM 28 9.0 20.0 66 27 80.1 89.8 29.854 7.41 1.5 478 0.00 0.00 0.00 0.00
08/31/26 4:37:27 PM 32 4.0 20.0 66 28 80.1 89.8 29.854 7.41 1.4 478 0.00 0.00 0.00 0.00
08/31/26 4:38:19 PM 32 3.0 20.0 66 29 80.1 89.8 29.855 7.41 1.4 473 0.00 0.00 0.00 0.00
08/31/26 4:39:33 PM 31 6.0 20.0 66 28 80.1 89.8 29.852 7.41 1.4 464 0.00 0.00 0.00 0.00
08/31/26 4:40:20 PM 32 9.0 20.0 66 29 80.0 89.8 29.854 7.41 1.4 464 0.00 0.00 0.00 0.00
08/31/26 4:41:34 PM 31 9.0 20.0 66 31 80.1 89.8 29.851 7.41 1.3 462 0.00 0.00 0.00 0.00
08/31/26 4:42:24 PM 31 5.0 20.0 66 31 80.1 89.8 29.853 7.41 1.3 462 0.00 0.00 0.00 0.00
08/31/26 4:43:35 PM 32 4.0 20.0 66 31 80.1 89.7 29.852 7.41 1.3 462 0.00 0.00 0.00 0.00
08/31/26 4:44:27 PM 32 10.0 20.0 66 31 80.1 89.7 29.850 7.41 1.3 454 0.00 0.00 0.00 0.00
08/31/26 4:45:20 PM 31 3.0 20.0 66 30 80.0 89.6 29.854 7.41 1.3 454 0.00 0.00 0.00 0.00
08/31/26 4:46:28 PM 31 5.0 20.0 66 30 80.0 89.6 29.851 7.41 1.3 445 0.00 0.00 0.00 0.00
08/31/26 4:47:18 PM 31 5.0 20.0 66 31 80.1 89.6 29.851 7.41 1.3 445 0.00 0.00 0.00 0.00
08/31/26 4:48:29 PM 31 5.0 20.0 66 30 80.1 89.5 29.852 7.41 1.3 445 0.00 0.00 0.00 0.00
08/31/26 4:49:21 PM 28 8.0 20.0 66 30 80.0 89.4 29.853 7.41 1.2 432 0.00 0.00 0.00 0.00
08/31/26 4:50:35 PM 32 11.0 20.0 66 31 80.1 89.4 29.849 7.41 1.2 432 0.00 0.00 0.00 0.00
08/31/26 4:51:22 PM 31 8.0 20.0 66 31 80.1 89.3 29.855 7.41 1.2 427 0.00 0.00 0.00 0.00
08/31/26 4:52:33 PM 31 3.0 20.0 66 32 80.1 89.2 29.854 7.41 1.2 418 0.00 0.00 0.00 0.00
08/31/26 4:53:25 PM 30 3.0 20.0 66 32 80.1 89.1 29.854 7.41 1.2 418 0.00 0.00 0.00 0.00
08/31/26 4:54:15 PM 32 8.0 20.0 66 32 80.1 89.0 29.852 7.41 1.1 418 0.00 0.00 0.00 0.00
08/31/26 4:55:29 PM 26 3.0 20.0 66 31 80.0 89.0 29.852 7.41 1.1 411 0.00 0.00 0.00 0.00
08/31/26 4:56:19 PM 32 2.0 20.0 66 32 80.1 89.0 29.856 7.41 1.1 404 0.00 0.00 0.00 0.00
08/31/26 4:57:33 PM 31 8.0 20.0 66 32 80.1 89.0 29.855 7.41 1.1 404 0.00 0.00 0.00 0.00
08/31/26 4:58:25 PM 32 11.0 20.0 66 32 80.1 89.0 29.853 7.41 1.1 404 0.00 0.00 0.00 0.00
08/31/26 4:59:18 PM 27 9.0 20.0 66 32 80.0 89.0 29.855 7.41 1.1 396 0.00 0.00 0.00 0.00
08/31/26 5:00:29 PM 31 10.0 20.0 66 33 80.1 89.0 29.855 7.41 1.0 396 0.00 0.00 0.00 0.00
08/31/26 5:01:22 PM 28 10.0 20.0 66 32 80.1 89.0 29.857 7.41 1.0 390 0.00 0.00 0.00 0.00
08/31/26 5:02:30 PM 32 11.0 20.0 66 32 80.0 88.9 29.855 7.41 1.0 387 0.00 0.00 0.00 0.00
08/31/26 5:03:22 PM 31 4.0 20.0 66 32 80.1 88.8 29.856 7.41 1.0 381 0.00 0.00 0.00 0.00
08/31/26 5:04:33 PM 30 8.0 20.0 66 31 80.1 88.7 29.856 7.41 1.0 381 0.00 0.00 0.00 0.00
08/31/26 5:05:26 PM 26 6.0 20.0 66 31 80.1 88.6 29.858 7.41 1.0 378 0.00 0.00 0.00 0.00
08/31/26 5:06:16 PM 32 11.0 20.0 66 32 80.0 88.5 29.859 7.41 0.9 378 0.00 0.00 0.00 0.00
08/31/26 5:07:24 PM 29 5.0 20.0 66 32 80.1 88.4 29.856 7.41 0.9 376 0.00 0.00 0.00 0.00
08/31/26 5:08:17 PM 32 8.0 20.0 66 33 80.1 88.4 29.855 7.41 0.9 376 0.00 0.00 0.00 0.00
08/31/26 5:09:31 PM 29 4.0 20.0 66 33 80.0 88.3 29.859 7.41 0.9 373 0.00 0.00 0.00 0.00
08/31/26 5:10:20 PM 32 14.0 20.0 66 33 80.1 88.3 29.855 7.41 0.9 373 0.00 0.00 0.00 0.00
08/31/26 5:11:34 PM 30 5.0 20.0 66 31 80.1 88.2 29.858 7.41 0.9 373 0.00 0.00 0.00 0.00
08/31/26 5:12:21 PM 31 6.0 20.0 66 32 80.1 88.1 29.854 7.41 0.9 373 0.00 0.00 0.00 0.00
08/31/26 5:13:32 PM 31 3.0 20.0 66 32 80.1 88.1 29.855 7.41 0.8 373 0.00 0.00 0.00 0.00
08/31/26 5:14:25 PM 32 3.0 20.0 66 32 80.1 88.1 29.857 7.41 0.8 373 0.00 0.00 0.00 0.00
08/31/26 5:15:17 PM 30 8.0 20.0 66 33 80.1 88.1 29.857 7.41 0.8 353 0.00 0.00 0.00 0.00
08/31/26 5:16:31 PM 31 11.0 20.0 66 33 80.1 88.2 29.855 7.41 0.8 355 0.00 0.00 0.00 0.00
08/31/26 5:17:21 PM 31 11.0 20.0 66 33 80.1 88.2 29.856 7.41 0.8 348 0.00 0.00 0.00 0.00
08/31/26 5:18:29 PM 30 5.0 20.0 66 32 80.1 88.1 29.856 7.41 0.8 343 0.00 0.00 0.00 0.00
08/31/26 5:19:22 PM 32 9.0 20.0 66 32 80.1 88.1 29.855 7.41 0.8 343 0.00 0.00 0.00 0.00
08/31/26 5:20:32 PM 32 8.0 20.0 66 32 80.0 88.1 29.858 7.41 0.7 343 0.00 0.00 0.00 0.00
08/31/26 5:21:25 PM 31 4.0 20.0 66 31 80.0 88.0 29.855 7.41 0.7 334 0.00 0.00 0.00 0.00
08/31/26 5:22:18 PM 28 8.0 20.0 66 32 80.1 88.0 29.856 7.41 0.7 330 0.00 0.00 0.00 0.00
08/31/26 5:23:23 PM 31 5.0 20.0 66 32 80.1 87.9 29.857 7.41 0.7 330 0.00 0.00 0.00 0.00
08/31/26 5:24:15 PM 32 9.0 20.0 66 32 80.0 87.9 29.855 7.41 0.7 330 0.00 0.00 0.00 0.00
08/31/26 5:25:26 PM 32 9.0 20.0 66 32 80.0 87.9 29.856 7.41 0.7 330 0.00 0.00 0.00 0.00
08/31/26 5:26:19 PM 32 9.0 20.0 66 32 80.1 87.9 29.859 7.41 0.7 330 0.00 0.00 0.00 0.00
08/31/26 5:27:30 PM 32 9.0 20.0 66 32 80.1 87.9 29.856 7.41 0.7 330 0.00 0.00 0.00 0.00
08/31/26 5:29:45 PM 32 5.0 20.0 66 34 80.2 87.3 29.856 7.41 0.7 330 0.00 0.00 0.00 0.00
08/31/26 5:30:37 PM 31 3.0 20.0 66 33 80.2 87.3 29.857 7.41 0.6 330 0.00 0.00 0.00 0.00
08/31/26 5:31:27 PM 31 10.0 20.0 66 33 80.2 87.2 29.858 7.41 0.6 330 0.00 0.00 0.00 0.00
08/31/26 5:32:20 PM 32 5.0 20.0 66 33 80.2 87.2 29.857 7.41 0.6 292 0.00 0.00 0.00 0.00
08/31/26 5:33:31 PM 30 8.0 20.0 66 33 80.2 87.1 29.857 7.41 0.6 292 0.00 0.00 0.00 0.00
08/31/26 5:34:24 PM 32 9.0 20.0 66 33 80.1 87.0 29.856 7.41 0.6 283 0.00 0.00 0.00 0.00
08/31/26 5:35:32 PM 26 5.0 20.0 66 33 80.1 87.0 29.857 7.41 0.5 283 0.00 0.00 0.00 0.00
08/31/26 5:36:22 PM 31 8.0 20.0 66 33 80.1 87.0 29.860 7.41 0.5 279 0.00 0.00 0.00 0.00
08/31/26 5:37:33 PM 31 6.0 20.0 66 33 80.1 86.9 29.859 7.41 0.5 276 0.00 0.00 0.00 0.00
08/31/26 5:38:25 PM 29 9.0 20.0 66 34 80.1 86.9 29.859 7.41 0.5 274 0.00 0.00 0.00 0.00
08/31/26 5:39:18 PM 31 6.0 20.0 66 33 80.1 86.9 29.861 7.41 0.5 274 0.00 0.00 0.00 0.00
08/31/26 5:40:26 PM 32 9.0 20.0 66 33 80.1 86.9 29.861 7.41 0.5 269 0.00 0.00 0.00 0.00
08/31/26 5:41:16 PM 32 4.0 20.0 66 32 80.0 86.8 29.860 7.41 0.5 269 0.00 0.00 0.00 0.00
08/31/26 5:42:30 PM 29 4.0 20.0 66 32 80.1 86.8 29.862 7.41 0.5 265 0.00 0.00 0.00 0.00
08/31/26 5:43:23 PM 31 6.0 20.0 66 33 80.0 86.7 29.862 7.41 0.0 265 0.00 0.00 0.00 0.00
08/31/26 5:44:34 PM 32 6.0 20.0 66 33 80.0 86.7 29.862 7.41 0.0 265 0.00 0.00 0.00 0.00
08/31/26 5:45:23 PM 32 13.0 20.0 66 32 80.0 86.6 29.862 7.41 0.0 253 0.00 0.00 0.00 0.00
08/31/26 5:46:31 PM 32 3.0 20.0 66 33 80.0 86.5 29.859 7.41 0.0 253 0.00 0.00 0.00 0.00
08/31/26 5:47:24 PM 31 3.0 20.0 66 33 80.0 86.4 29.863 7.41 0.0 248 0.00 0.00 0.00 0.00
08/31/26 5:48:35 PM 32 5.0 20.0 66 33 80.0 86.3 29.862 7.41 0.0 248 0.00 0.00 0.00 0.00
08/31/26 5:49:28 PM 32 8.0 20.0 66 33 80.0 86.3 29.861 7.41 0.0 244 0.00 0.00 0.00 0.00
08/31/26 5:50:17 PM 32 11.0 20.0 66 32 80.0 86.3 29.862 7.41 0.0 244 0.00 0.00 0.00 0.00
08/31/26 5:51:28 PM 31 11.0 20.0 66 32 80.0 86.2 29.862 7.41 0.0 239 0.00 0.00 0.00 0.00
08/31/26 5:52:18 PM 31 13.0 20.0 66 32 80.0 86.1 29.860 7.41 0.0 239 0.00 0.00 0.00 0.00
08/31/26 5:53:32 PM 31 9.0 20.0 66 33 80.0 85.9 29.860 7.41 0.0 223 0.00 0.00 0.00 0.00
08/31/26 5:54:22 PM 34 8.0 20.0 66 33 80.0 85.8 29.862 7.41 0.0 218 0.00 0.00 0.00 0.00
08/31/26 5:55:36 PM 31 10.0 20.0 66 33 79.9 85.6 29.863 7.41 0.0 214 0.00 0.00 0.00 0.00
08/31/26 5:56:23 PM 30 8.0 20.0 66 33 80.0 85.6 29.865 7.41 0.0 207 0.00 0.00 0.00 0.00
08/31/26 5:57:37 PM 32 12.0 20.0 66 33 79.9 85.5 29.866 7.41 0.0 209 0.00 0.00 0.00 0.00
08/31/26 5:58:26 PM 32 9.0 20.0 66 34 79.9 85.5 29.865 7.41 0.0 209 0.00 0.00 0.00 0.00
08/31/26 5:59:19 PM 28 4.0 20.0 66 34 79.9 85.4 29.864 7.41 0.0 209 0.00 0.00 0.00 0.00
08/31/26 6:00:33 PM 31 4.0 20.0 66 34 79.9 85.4 29.864 7.41 0.0 209 0.00 0.00 0.00 0.00
08/31/26 6:01:20 PM 31 9.0 20.0 66 33 79.9 85.4 29.865 7.41 0.0 209 0.00 0.00 0.00 0.00
08/31/26 6:02:31 PM 30 5.0 20.0 66 33 79.9 85.4 29.865 7.41 0.0 209 0.00 0.00 0.00 0.00
08/31/26 6:03:24 PM 28 8.0 20.0 66 33 79.9 85.4 29.861 7.41 0.0 188 0.00 0.00 0.00 0.00
08/31/26 6:04:35 PM 32 5.0 20.0 66 33 79.9 85.4 29.863 7.41 0.0 181 0.00 0.00 0.00 0.00
08/31/26 6:05:25 PM 32 6.0 20.0 66 33 79.9 85.3 29.863 7.41 0.0 181 0.00 0.00 0.00 0.00
08/31/26 6:06:18 PM 28 9.0 20.0 66 33 79.9 85.3 29.863 7.41 0.0 176 0.00 0.00 0.00 0.00
08/31/26 6:07:26 PM 31 10.0 20.0 66 33 79.9 85.2 29.862 7.41 0.0 176 0.00 0.00 0.00 0.00
08/31/26 6:08:37 PM 31 8.0 20.0 66 34 79.8 85.1 29.864 7.41 0.0 165 0.00 0.00 0.00 0.00
08/31/26 6:09:29 PM 32 8.0 20.0 66 34 79.9 85.1 29.864 7.41 0.0 163 0.00 0.00 0.00 0.00
08/31/26 6:10:19 PM 31 5.0 20.0 66 35 79.9 85.0 29.865 7.41 0.0 158 0.00 0.00 0.00 0.00
08/31/26 6:11:33 PM 32 4.0 20.0 66 36 79.9 84.9 29.862 7.41 0.0 158 0.00 0.00 0.00 0.00
08/31/26 6:12:20 PM 30 6.0 20.0 66 36 79.9 84.9 29.863 7.41 0.0 151 0.00 0.00 0.00 0.00
08/31/26 6:13:31 PM 32 10.0 20.0 66 36 79.8 84.8 29.864 7.41 0.0 148 0.00 0.00 0.00 0.00
08/31/26 6:14:23 PM 31 6.0 20.0 66 36 79.9 84.6 29.862 7.41 0.0 144 0.00 0.00 0.00 0.00
08/31/26 6:15:37 PM 32 4.0 20.0 66 36 79.8 84.4 29.863 7.41 0.0 141 0.00 0.00 0.00 0.00
08/31/26 6:16:27 PM 32 8.0 20.0 66 36 79.8 84.4 29.866 7.41 0.0 141 0.00 0.00 0.00 0.00
08/31/26 6:17:17 PM 32 4.0 20.0 66 36 79.8 84.3 29.862 7.41 0.0 135 0.00 0.00 0.00 0.00
08/31/26 6:18:28 PM 31 6.0 20.0 66 36 79.8 84.2 29.863 7.41 0.0 135 0.00 0.00 0.00 0.00
08/31/26 6:19:21 PM 31 5.0 20.0 66 36 79.8 84.2 29.864 7.41 0.0 128 0.00 0.00 0.00 0.00
08/31/26 6:20:32 PM 32 4.0 20.0 66 36 79.8 84.1 29.865 7.41 0.0 123 0.00 0.00 0.00 0.00
08/31/26 6:21:25 PM 31 10.0 20.0 66 36 79.7 84.1 29.865 7.41 0.0 123 0.00 0.00 0.00 0.00
08/31/26 6:22:29 PM 31 6.0 20.0 66 36 79.8 84.1 29.865 7.41 0.0 116 0.00 0.00 0.00 0.00
08/31/26 6:23:22 PM 31 4.0 20.0 66 36 79.7 84.0 29.864 7.41 0.0 116 0.00 0.00 0.00 0.00
08/31/26 6:24:33 PM 31 3.0 20.0 66 37 79.7 84.0 29.867 7.41 0.0 107 0.00 0.00 0.00 0.00
08/31/26 6:25:26 PM 31 11.0 20.0 66 37 79.7 83.9 29.864 7.41 0.0 107 0.00 0.00 0.00 0.00
08/31/26 6:26:19 PM 31 8.0 20.0 66 36 79.7 83.9 29.864 7.41 0.0 102 0.00 0.00 0.00 0.00
08/31/26 6:27:30 PM 32 8.0 20.0 66 36 79.6 83.8 29.865 7.41 0.0 100 0.00 0.00 0.00 0.00
08/31/26 6:28:16 PM 32 5.0 20.0 66 36 79.7 83.6 29.866 7.41 0.0 95 0.00 0.00 0.00 0.00
08/31/26 6:29:27 PM 32 2.0 20.0 66 37 79.7 83.5 29.863 7.41 0.0 69 0.00 0.00 0.00 0.00
08/31/26 6:30:41 PM 29 2.0 20.0 66 37 79.6 83.4 29.865 7.41 0.0 69 0.00 0.00 0.00 0.00
08/31/26 6:31:31 PM 31 6.0 20.0 66 37 79.6 83.4 29.865 7.41 0.0 69 0.00 0.00 0.00 0.00
08/31/26 6:32:24 PM 30 4.0 20.0 66 37 79.6 83.3 29.866 7.41 0.0 40 0.00 0.00 0.00 0.00
08/31/26 6:33:32 PM 32 3.0 20.0 66 37 79.6 83.3 29.865 7.41 0.0 40 0.00 0.00 0.00 0.00
08/31/26 6:34:22 PM 32 2.0 20.0 66 38 79.6 83.2 29.864 7.41 0.0 40 0.00 0.00 0.00 0.00
08/31/26 6:35:36 PM 32 1.0 20.0 66 38 79.6 83.2 29.865 7.41 0.0 40 0.00 0.00 0.00 0.00
08/31/26 6:36:29 PM 31 1.0 20.0 66 39 79.6 83.1 29.867 7.41 0.0 40 0.00 0.00 0.00 0.00
08/31/26 6:37:18 PM 30 0.0 20.0 66 38 79.6 83.1 29.865 7.41 0.0 28 0.00 0.00 0.00 0.00
08/31/26 6:38:32 PM 26 9.0 20.0 66 38 79.6 83.0 29.863 7.41 0.0 26 0.00 0.00 0.00 0.00
08/31/26 6:39:19 PM 31 9.0 20.0 66 38 79.6 83.0 29.863 7.41 0.0 26 0.00 0.00 0.00 0.00
08/31/26 6:40:30 PM 31 9.0 20.0 66 38 79.5 83.0 29.867 7.41 0.0 26 0.00 0.00 0.00 0.00
08/31/26 6:41:23 PM 31 9.0 20.0 66 38 79.6 83.0 29.867 7.41 0.0 26 0.00 0.00 0.00 0.00
08/31/26 6:42:34 PM 31 9.0 20.0 66 38 79.5 83.0 29.867 7.41 0.0 26 0.00 0.00 0.00 0.00
08/31/26 6:43:27 PM 31 9.0 20.0 66 38 79.6 83.0 29.868 7.41 0.0 26 0.00 0.00 0.00 0.00
08/31/26 6:44:35 PM 32 6.0 20.0 66 38 79.6 83.0 29.867 7.41 0.0 26 0.00 0.00 0.00 0.00
08/31/26 6:45:28 PM 31 5.0 20.0 66 39 79.7 82.3 29.866 7.41 0.0 23 0.00 0.00 0.00 0.00
08/31/26 6:46:18 PM 31 2.0 20.0 66 39 79.6 82.2 29.867 7.41 0.0 23 0.00 0.00 0.00 0.00
08/31/26 6:47:28 PM 29 2.0 20.0 66 40 79.6 82.2 29.866 7.41 0.0 23 0.00 0.00 0.00 0.00
08/31/26 6:48:21 PM 31 6.0 20.0 66 40 79.6 82.1 29.867 7.41 0.0 23 0.00 0.00 0.00 0.00
08/31/26 6:49:29 PM 32 5.0 20.0 66 40 79.5 82.0 29.867 7.41 0.0 23 0.00 0.00 0.00 0.00
08/31/26 6:50:22 PM 31 3.0 20.0 66 40 79.4 82.0 29.867 7.41 0.0 23 0.00 0.00 0.00 0.00
08/31/26 6:51:33 PM 32 3.0 20.0 66 40 79.4 81.9 29.867 7.41 0.0 19 0.00 0.00 0.00 0.00
08/31/26 6:52:26 PM 32 3.0 20.0 66 40 79.4 81.9 29.868 7.41 0.0 19 0.00 0.00 0.00 0.00
08/31/26 6:53:16 PM 31 1.0 20.0 66 40 79.4 81.8 29.869 7.41 0.0 19 0.00 0.00 0.00 0.00
08/31/26 6:54:30 PM 32 2.0 20.0 66 40 79.4 81.8 29.868 7.41 0.0 18 0.00 0.00 0.00 0.00
08/31/26 6:55:17 PM 24 4.0 20.0 66 40 79.4 81.7 29.868 7.41 0.0 18 0.00 0.00 0.00 0.00
08/31/26 6:56:31 PM 31 8.0 20.0 66 40 79.3 81.6 29.870 7.41 0.0 16 0.00 0.00 0.00 0.00
08/31/26 6:57:23 PM 32 9.0 20.0 66 40 79.3 81.6 29.872 7.41 0.0 14 0.00 0.00 0.00 0.00
08/31/26 6:58:31 PM 32 5.0 20.0 66 40 79.3 81.4 29.870 7.41 0.0 14 0.00 0.00 0.00 0.00
08/31/26 6:59:24 PM 31 5.0 20.0 66 40 79.3 81.3 29.867 7.41 0.0 14 0.00 0.00 0.00 0.00
08/31/26 7:00:35 PM 31 5.0 20.0 66 40 79.3 81.2 29.869 7.41 0.0 14 0.00 0.00 0.00 0.00
08/31/26 7:01:25 PM 30 5.0 20.0 66 40 79.2 81.1 29.869 7.41 0.0 11 0.00 0.00 0.00 0.00
08/31/26 7:02:18 PM 32 3.0 20.0 66 41 79.2 81.1 29.870 7.41 0.0 11 0.00 0.00 0.00 0.00
08/31/26 7:03:29 PM 32 6.0 20.0 66 41 79.1 81.0 29.868 7.41 0.0 9 0.00 0.00 0.00 0.00
08/31/26 7:04:21 PM 32 3.0 20.0 66 41 79.2 80.9 29.871 7.41 0.0 9 0.00 0.00 0.00 0.00
08/31/26 7:05:29 PM 31 9.0 20.0 66 41 79.2 80.9 29.873 7.41 0.0 9 0.00 0.00 0.00 0.00
08/31/26 7:06:22 PM 30 4.0 20.0 66 41 79.1 80.8 29.872 7.41 0.0 9 0.00 0.00 0.00 0.00
08/31/26 7:07:33 PM 32 4.0 20.0 66 42 79.1 80.7 29.873 7.41 0.0 7 0.00 0.00 0.00 0.00
08/31/26 7:08:26 PM 28 8.0 20.0 66 43 79.1 80.7 29.872 7.41 0.0 7 0.00 0.00 0.00 0.00
08/31/26 7:09:16 PM 28 5.0 20.0 66 43 79.1 80.6 29.870 7.41 0.0 7 0.00 0.00 0.00 0.00
08/31/26 7:10:30 PM 30 4.0 20.0 66 43 79.1 80.6 29.875 7.41 0.0 5 0.00 0.00 0.00 0.00
08/31/26 7:11:16 PM 32 5.0 20.0 66 43 79.1 80.5 29.873 7.41 0.0 5 0.00 0.00 0.00 0.00
08/31/26 7:12:30 PM 30 3.0 20.0 66 43 79.1 80.5 29.873 7.41 0.0 5 0.00 0.00 0.00 0.00
08/31/26 7:13:20 PM 28 3.0 20.0 66 43 79.1 80.5 29.872 7.41 0.0 5 0.00 0.00 0.00 0.00
08/31/26 7:14:34 PM 32 1.0 20.0 66 44 79.1 80.4 29.873 7.41 0.0 5 0.00 0.00 0.00 0.00
08/31/26 7:15:27 PM 31 0.0 20.0 66 44 79.0 80.4 29.874 7.41 0.0 5 0.00 0.00 0.00 0.00
08/31/26 7:16:32 PM 32 5.0 20.0 66 44 79.0 80.3 29.874 7.41 0.0 0 0.00 0.00 0.00 0.00
08/31/26 7:17:25 PM 28 2.0 20.0 66 44 79.1 80.3 29.872 7.41 0.0 0 0.00 0.00 0.00 0.00
08/31/26 7:18:17 PM 31 1.0 20.0 66 44 79.0 80.3 29.875 7.41 0.0 0 0.00 0.00 0.00 0.00
08/31/26 7:19:28 PM 32 1.0 20.0 66 44 79.0 80.2 29.875 7.41 0.0 0 0.00 0.00 0.00 0.00
08/31/26 7:20:21 PM 32 3.0 20.0 66 44 79.0 80.2 29.876 7.41 0.0 0 0.00 0.00 0.00 0.00
08/31/26 7:21:29 PM 29 0.0 20.0 66 44 79.0 80.2 29.875 7.41 0.0 0 0.00 0.00 0.00 0.00
08/31/26 7:22:22 PM 29 1.0 20.0 66 44 79.0 80.2 29.876 7.41 0.0 0 0.00 0.00 0.00 0.00
08/31/26 7:23:33 PM 32 0.0 20.0 66 44 78.9 80.1 29.876 7.41 0.0 0 0.00 0.00 0.00 0.00
08/31/26 7:24:25 PM 29 2.0 20.0 66 44 79.0 80.1 29.874 7.41 0.0 0 0.00 0.00 0.00 0.00
08/31/26 7:25:15 PM 34 0.0 20.0 66 45 78.9 80.1 29.875 7.41 0.0 0 0.00 0.00 0.00 0.00
08/31/26 7:26:29 PM 31 1.0 20.0 66 45 78.9 80.1 29.874 7.41 0.0 0 0.00 0.00 0.00 0.00
08/31/26 7:27:16 PM 31 2.0 20.0 66 45 78.9 80.1 29.875 7.41 0.0 0 0.00 0.00 0.00 0.00
08/31/26 7:28:27 PM 23 2.0 20.0 66 45 78.9 80.0 29.876 7.41 0.0 0 0.00 0.00 0.00 0.00
08/31/26 7:29:20 PM 32 4.0 20.0 66 45 78.9 80.0 29.876 7.41 0.0 0 0.00 0.00 0.00 0.00
08/31/26 7:30:34 PM 31 4.0 20.0 66 45 78.8 79.9 29.875 7.41 0.0 0 0.00 0.00 0.00 0.00
08/31/26 7:31:24 PM 32 1.0 20.0 66 45 78.8 79.9 29.876 7.41 0.0 0 0.00 0.00 0.00 0.00
08/31/26 7:32:32 PM 29 0.0 20.0 66 45 78.8 79.8 29.878 7.41 0.0 0 0.00 0.00 0.00 0.00
08/31/26 7:33:24 PM 31 5.0 20.0 66 44 78.8 79.8 29.876 7.41 0.0 0 0.00 0.00 0.00 0.00
08/31/26 7:34:35 PM 32 4.0 20.0 66 43 78.8 79.7 29.876 7.41 0.0 0 0.00 0.00 0.00 0.00
08/31/26 7:35:28 PM 32 4.0 20.0 66 43 78.7 79.6 29.878 7.41 0.0 0 0.00 0.00 0.00 0.00
08/31/26 7:36:18 PM 32 4.0 20.0 66 43 78.7 79.6 29.878 7.41 0.0 0 0.00 0.00 0.00 0.00
08/31/26 7:37:26 PM 25 5.0 20.0 66 43 78.7 79.5 29.879 7.41 0.0 0 0.00 0.00 0.00 0.00
08/31/26 7:38:19 PM 30 3.0 20.0 66 43 78.7 79.4 29.879 7.41 0.0 0 0.00 0.00 0.00 0.00
08/31/26 7:39:30 PM 31 4.0 20.0 66 43 78.7 79.4 29.881 7.41 0.0 0 0.00 0.00 0.00 0.00
08/31/26 7:40:23 PM 32 6.0 20.0 66 43 78.6 79.3 29.879 7.41 0.0 0 0.00 0.00 0.00 0.00
08/31/26 7:41:37 PM 32 5.0 20.0 66 44 78.6 79.2 29.882 7.41 0.0 0 0.00 0.00 0.00 0.00
08/31/26 7:42:29 PM 31 3.0 20.0 66 44 78.6 79.2 29.883 7.41 0.0 0 0.00 0.00 0.00 0.00
08/31/26 7:43:34 PM 29 3.0 20.0 66 44 78.6 79.1 29.883 7.41 0.0 0 0.00 0.00 0.00 0.00
08/31/26 7:44:29 PM 32 8.0 20.0 66 44 78.5 79.1 29.884 7.41 0.0 0 0.00 0.00 0.00 0.00
08/31/26 7:45:22 PM 32 4.0 20.0 66 44 78.5 79.1 29.884 7.41 0.0 0 0.00 0.00 0.00 0.00
08/31/26 7:46:33 PM 32 3.0 20.0 66 46 78.5 79.1 29.882 7.41 0.0 0 0.00 0.00 0.00 0.00
08/31/26 7:47:23 PM 32 3.0 20.0 66 47 78.5 79.1 29.884 7.41 0.0 0 0.00 0.00 0.00 0.00
08/31/26 7:48:31 PM 32 2.0 20.0 66 47 78.5 79.0 29.884 7.41 0.0 0 0.00 0.00 0.00 0.00
08/31/26 7:49:24 PM 30 0.0 20.0 66 47 78.5 79.0 29.886 7.41 0.0 0 0.00 0.00 0.00 0.00
08/31/26 7:50:35 PM 32 2.0 20.0 66 47 78.5 78.9 29.886 7.41 0.0 0 0.00 0.00 0.00 0.00
08/31/26 7:51:27 PM 31 2.0 20.0 66 47 78.5 78.9 29.887 7.41 0.0 0 0.00 0.00 0.00 0.00
08/31/26 7:52:17 PM 30 5.0 20.0 66 47 78.4 78.9 29.888 7.41 0.0 0 0.00 0.00 0.00 0.00
08/31/26 7:53:25 PM 31 2.0 20.0 66 48 78.4 78.9 29.888 7.41 0.0 0 0.00 0.00 0.00 0.00
08/31/26 7:54:18 PM 32 1.0 20.0 66 48 78.4 78.8 29.888 7.41 0.0 0 0.00 0.00 0.00 0.00
08/31/26 7:55:29 PM 30 1.0 20.0 66 48 78.4 78.8 29.889 7.41 0.0 0 0.00 0.00 0.00 0.00
08/31/26 7:56:22 PM 28 1.0 20.0 66 48 78.4 78.7 29.889 7.41 0.0 0 0.00 0.00 0.00 0.00
08/31/26 7:57:33 PM 32 0.0 20.0 66 48 78.3 78.7 29.889 7.41 0.0 0 0.00 0.00 0.00 0.00
08/31/26 7:58:25 PM 32 0.0 20.0 66 48 78.3 78.7 29.889 7.41 0.0 0 0.00 0.00 0.00 0.00
08/31/26 7:59:33 PM 32 1.0 20.0 66 48 78.3 78.7 29.892 7.41 0.0 0 0.00 0.00 0.00 0.00
08/31/26 8:00:26 PM 32 2.0 20.0 66 49 78.3 78.6 29.888 7.41 0.0 0 0.00 0.00 0.00 0.00
08/31/26 8:01:16 PM 31 1.0 20.0 66 49 78.3 78.5 29.892 7.41 0.0 0 0.00 0.00 0.00 0.00
08/31/26 8:02:27 PM 31 0.0 20.0 66 49 78.3 78.5 29.889 7.41 0.0 0 0.00 0.00 0.00 0.00
08/31/26 8:03:20 PM 28 0.0 20.0 66 49 78.3 78.5 29.890 7.41 0.0 0 0.00 0.00 0.00 0.00
08/31/26 8:04:31 PM 31 0.0 20.0 66 49 78.3 78.5 29.892 7.41 0.0 0 0.00 0.00 0.00 0.00
08/31/26 8:05:20 PM 31 0.0 20.0 66 49 78.3 78.4 29.891 7.41 0.0 0 0.00 0.00 0.00 0.00
08/31/26 8:06:31 PM 32 0.0 20.0 66 48 78.2 78.4 29.893 7.41 0.0 0 0.00 0.00 0.00 0.00
08/31/26 8:07:24 PM 31 0.0 20.0 66 48 78.2 78.3 29.891 7.41 0.0 0 0.00 0.00 0.00 0.00
08/31/26 8:08:35 PM 31 0.0 20.0 66 48 78.2 78.2 29.892 7.41 0.0 0 0.00 0.00 0.00 0.00
08/31/26 8:09:25 PM 30 0.0 20.0 66 49 78.2 78.2 29.891 7.41 0.0 0 0.00 0.00 0.00 0.00
08/31/26 8:10:36 PM 30 3.0 20.0 66 49 78.1 78.2 29.893 7.41 0.0 0 0.00 0.00 0.00 0.00
08/31/26 8:11:29 PM 31 3.0 20.0 66 50 78.1 78.2 29.894 7.41 0.0 0 0.00 0.00 0.00 0.00
08/31/26 8:12:22 PM 28 2.0 20.0 66 50 78.1 78.0 29.894 7.41 0.0 0 0.00 0.00 0.00 0.00
08/31/26 8:13:33 PM 31 2.0 20.0 66 50 78.1 78.0 29.895 7.41 0.0 0 0.00 0.00 0.00 0.00
08/31/26 8:14:26 PM 30 1.0 20.0 66 50 78.1 78.0 29.894 7.41 0.0 0 0.00 0.00 0.00 0.00
08/31/26 8:15:34 PM 34 1.0 20.0 66 50 78.1 77.9 29.895 7.41 0.0 0 0.00 0.00 0.00 0.00
08/31/26 8:16:23 PM 30 0.0 20.0 66 50 78.1 77.9 29.894 7.41 0.0 0 0.00 0.00 0.00 0.00
08/31/26 8:17:16 PM 29 1.0 20.0 66 50 78.0 77.8 29.894 7.41 0.0 0 0.00 0.00 0.00 0.00
08/31/26 8:18:27 PM 32 1.0 20.0 66 51 78.0 77.8 29.895 7.41 0.0 0 0.00 0.00 0.00 0.00
08/31/26 8:19:17 PM 31 5.0 20.0 66 51 78.0 77.8 29.896 7.41 0.0 0 0.00 0.00 0.00 0.00
08/31/26 8:20:28 PM 31 5.0 20.0 66 52 78.0 77.7 29.898 7.41 0.0 0 0.00 0.00 0.00 0.00
08/31/26 8:21:18 PM 30 4.0 20.0 66 52 78.0 77.6 29.898 7.41 0.0 0 0.00 0.00 0.00 0.00
08/31/26 8:22:29 PM 31 2.0 20.0 66 52 78.0 77.6 29.898 7.41 0.0 0 0.00 0.00 0.00 0.00
08/31/26 8:23:22 PM 32 2.0 20.0 66 51 77.9 77.5 29.899 7.41 0.0 0 0.00 0.00 0.00 0.00
08/31/26 8:24:33 PM 31 1.0 20.0 66 52 77.9 77.4 29.898 7.41 0.0 0 0.00 0.00 0.00 0.00
08/31/26 8:25:22 PM 32 2.0 20.0 66 52 77.9 77.4 29.900 7.41 0.0 0 0.00 0.00 0.00 0.00
08/31/26 8:26:33 PM 31 1.0 20.0 66 52 77.8 77.4 29.900 7.41 0.0 0 0.00 0.00 0.00 0.00
08/31/26 8:27:26 PM 34 1.0 20.0 66 52 77.9 77.3 29.900 7.41 0.0 0 0.00 0.00 0.00 0.00
08/31/26 8:28:16 PM 31 1.0 20.0 66 52 77.9 77.3 29.902 7.41 0.0 0 0.00 0.00 0.00 0.00
08/31/26 8:29:30 PM 31 1.0 20.0 66 52 77.8 77.3 29.902 7.41 0.0 0 0.00 0.00 0.00 0.00
08/31/26 8:30:23 PM 32 4.0 20.0 66 52 77.8 77.3 29.901 7.41 0.0 0 0.00 0.00 0.00 0.00
08/31/26 8:31:31 PM 31 5.0 20.0 66 52 77.8 77.2 29.904 7.41 0.0 0 0.00 0.00 0.00 0.00
08/31/26 8:32:21 PM 29 5.0 20.0 66 52 77.8 77.2 29.903 7.41 0.0 0 0.00 0.00 0.00 0.00
08/31/26 8:33:32 PM 34 4.0 20.0 66 52 77.8 77.0 29.903 7.41 0.0 0 0.00 0.00 0.00 0.00
08/31/26 8:34:24 PM 32 3.0 20.0 66 52 77.8 76.9 29.905 7.41 0.0 0 0.00 0.00 0.00 0.00
08/31/26 8:35:17 PM 32 2.0 20.0 66 52 77.8 76.9 29.905 7.41 0.0 0 0.00 0.00 0.00 0.00
08/31/26 8:36:22 PM 30 3.0 20.0 66 52 77.7 76.9 29.905 7.41 0.0 0 0.00 0.00 0.00 0.00
08/31/26 8:37:15 PM 29 2.0 20.0 66 52 77.7 76.8 29.904 7.41 0.0 0 0.00 0.00 0.00 0.00
08/31/26 8:38:29 PM 31 0.0 20.0 66 52 77.7 76.8 29.906 7.41 0.0 0 0.00 0.00 0.00 0.00
08/31/26 8:39:19 PM 34 0.0 20.0 66 52 77.6 76.7 29.905 7.41 0.0 0 0.00 0.00 0.00 0.00
08/31/26 8:40:33 PM 32 0.0 20.0 66 52 77.6 76.7 29.905 7.41 0.0 0 0.00 0.00 0.00 0.00
08/31/26 8:41:20 PM 32 0.0 20.0 66 53 77.6 76.6 29.904 7.41 0.0 0 0.00 0.00 0.00 0.00
08/31/26 8:42:34 PM 32 0.0 20.0 66 53 77.6 76.6 29.905 7.41 0.0 0 0.00 0.00 0.00 0.00
08/31/26 8:43:27 PM 32 0.0 20.0 66 53 77.6 76.5 29.908 7.41 0.0 0 0.00 0.00 0.00 0.00
08/31/26 8:44:17 PM 31 0.0 20.0 66 53 77.6 76.5 29.907 7.41 0.0 0 0.00 0.00 0.00 0.00
08/31/26 8:45:31 PM 30 0.0 20.0 66 53 77.6 76.5 29.906 7.41 0.0 0 0.00 0.00 0.00 0.00
08/31/26 8:46:21 PM 31 0.0 20.0 66 53 77.6 76.5 29.909 7.41 0.0 0 0.00 0.00 0.00 0.00
08/31/26 8:47:29 PM 30 0.0 20.0 66 53 77.5 76.4 29.908 7.41 0.0 0 0.00 0.00 0.00 0.00
08/31/26 8:48:21 PM 30 0.0 20.0 66 53 77.5 76.4 29.909 7.41 0.0 0 0.00 0.00 0.00 0.00
08/31/26 8:49:32 PM 32 0.0 20.0 66 53 77.5 76.4 29.908 7.41 0.0 0 0.00 0.00 0.00 0.00
08/31/26 8:50:25 PM 30 0.0 20.0 66 53 77.5 76.4 29.910 7.41 0.0 0 0.00 0.00 0.00 0.00
08/31/26 8:51:18 PM 34 0.0 20.0 66 53 77.5 76.4 29.911 7.41 0.0 0 0.00 0.00 0.00 0.00
08/31/26 8:52:26 PM 30 0.0 20.0 66 53 77.5 76.3 29.910 7.41 0.0 0 0.00 0.00 0.00 0.00
08/31/26 8:53:16 PM 30 0.0 20.0 66 53 77.4 76.3 29.911 7.41 0.0 0 0.00 0.00 0.00 0.00
08/31/26 8:54:30 PM 32 0.0 20.0 66 52 77.4 76.3 29.912 7.41 0.0 0 0.00 0.00 0.00 0.00
08/31/26 8:55:20 PM 30 0.0 20.0 66 52 77.4 76.2 29.912 7.41 0.0 0 0.00 0.00 0.00 0.00
08/31/26 8:56:34 PM 31 0.0 20.0 66 52 77.4 76.2 29.914 7.41 0.0 0 0.00 0.00 0.00 0.00
08/31/26 8:57:21 PM 31 0.0 20.0 66 52 77.4 76.2 29.914 7.41 0.0 0 0.00 0.00 0.00 0.00
08/31/26 8:58:35 PM 32 0.0 20.0 66 53 77.4 76.1 29.913 7.41 0.0 0 0.00 0.00 0.00 0.00
08/31/26 8:59:25 PM 32 0.0 20.0 66 53 77.4 76.1 29.915 7.41 0.0 0 0.00 0.00 0.00 0.00
08/31/26 9:00:20 PM 29 0.0 20.0 66 53 77.3 76.0 29.916 7.41 0.0 0 0.00 0.00 0.00 0.00
08/31/26 9:01:31 PM 32 0.0 20.0 66 53 77.3 76.0 29.917 7.41 0.0 0 0.00 0.00 0.00 0.00
08/31/26 9:02:21 PM 31 0.0 20.0 66 53 77.3 75.9 29.917 7.41 0.0 0 0.00 0.00 0.00 0.00
08/31/26 9:03:29 PM 29 0.0 20.0 66 53 77.3 75.9 29.916 7.41 0.0 0 0.00 0.00 0.00 0.00
08/31/26 9:04:22 PM 28 0.0 20.0 66 54 77.3 75.8 29.915 7.41 0.0 0 0.00 0.00 0.00 0.00
08/31/26 9:05:33 PM 28 0.0 20.0 66 54 77.2 75.7 29.915 7.41 0.0 0 0.00 0.00 0.00 0.00
08/31/26 9:06:26 PM 32 0.0 20.0 66 54 77.2 75.6 29.916 7.41 0.0 0 0.00 0.00 0.00 0.00
08/31/26 9:07:16 PM 31 0.0 20.0 66 54 77.2 75.6 29.919 7.41 0.0 0 0.00 0.00 0.00 0.00
08/31/26 9:08:24 PM 32 0.0 20.0 66 54 77.2 75.5 29.919 7.41 0.0 0 0.00 0.00 0.00 0.00
08/31/26 9:09:35 PM 31 0.0 20.0 66 54 77.2 75.4 29.919 7.41 0.0 0 0.00 0.00 0.00 0.00
08/31/26 9:10:28 PM 34 0.0 20.0 66 54 77.2 75.4 29.920 7.41 0.0 0 0.00 0.00 0.00 0.00
08/31/26 9:11:20 PM 32 0.0 20.0 66 54 77.2 75.3 29.920 7.41 0.0 0 0.00 0.00 0.00 0.00
08/31/26 9:12:31 PM 30 0.0 20.0 66 54 77.2 75.3 29.923 7.41 0.0 0 0.00 0.00 0.00 0.00
08/31/26 9:13:18 PM 31 0.0 20.0 66 55 77.1 75.3 29.919 7.41 0.0 0 0.00 0.00 0.00 0.00
08/31/26 9:14:29 PM 32 0.0 20.0 66 55 77.1 75.2 29.921 7.41 0.0 0 0.00 0.00 0.00 0.00
08/31/26 9:15:25 PM 32 0.0 20.0 66 55 77.1 75.2 29.923 7.41 0.0 0 0.00 0.00 0.00 0.00
08/31/26 9:16:33 PM 28 0.0 20.0 66 54 77.1 75.1 29.922 7.41 0.0 0 0.00 0.00 0.00 0.00
08/31/26 9:17:26 PM 32 0.0 20.0 66 54 77.1 75.1 29.922 7.41 0.0 0 0.00 0.00 0.00 0.00
08/31/26 9:18:16 PM 32 0.0 20.0 66 55 77.0 75.0 29.922 7.41 0.0 0 0.00 0.00 0.00 0.00
08/31/26 9:19:24 PM 30 0.0 20.0 66 55 77.0 74.9 29.923 7.41 0.0 0 0.00 0.00 0.00 0.00
08/31/26 9:20:17 PM 32 0.0 20.0 66 55 77.0 74.8 29.923 7.41 0.0 0 0.00 0.00 0.00 0.00
08/31/26 9:21:28 PM 34 0.0 20.0 66 55 77.0 74.8 29.922 7.41 0.0 0 0.00 0.00 0.00 0.00
08/31/26 9:22:20 PM 29 0.0 20.0 66 55 77.0 74.7 29.921 7.41 0.0 0 0.00 0.00 0.00 0.00
08/31/26 9:23:32 PM 29 0.0 20.0 66 55 77.0 74.6 29.923 7.41 0.0 0 0.00 0.00 0.00 0.00
08/31/26 9:24:19 PM 31 0.0 20.0 66 55 76.9 74.5 29.920 7.41 0.0 0 0.00 0.00 0.00 0.00
08/31/26 9:25:30 PM 32 0.0 20.0 66 55 76.9 74.5 29.921 7.41 0.0 0 0.00 0.00 0.00 0.00
08/31/26 9:26:22 PM 31 0.0 20.0 66 55 76.9 74.4 29.922 7.41 0.0 0 0.00 0.00 0.00 0.00
08/31/26 9:27:33 PM 34 0.0 20.0 66 55 76.9 74.3 29.920 7.41 0.0 0 0.00 0.00 0.00 0.00
08/31/26 9:28:26 PM 31 0.0 20.0 66 55 76.9 74.2 29.922 7.41 0.0 0 0.00 0.00 0.00 0.00
08/31/26 9:29:34 PM 34 0.0 20.0 66 55 76.8 74.2 29.924 7.41 0.0 0 0.00 0.00 0.00 0.00
08/31/26 9:30:27 PM 25 0.0 20.0 66 55 76.9 74.1 29.923 7.41 0.0 0 0.00 0.00 0.00 0.00
08/31/26 9:31:17 PM 28 0.0 20.0 66 55 76.8 74.1 29.925 7.41 0.0 0 0.00 0.00 0.00 0.00
08/31/26 9:32:28 PM 32 0.0 20.0 66 55 76.8 74.0 29.923 7.41 0.0 0 0.00 0.00 0.00 0.00
08/31/26 9:33:21 PM 32 0.0 20.0 66 55 76.8 73.9 29.924 7.41 0.0 0 0.00 0.00 0.00 0.00
08/31/26 9:34:29 PM 32 0.0 20.0 66 56 76.8 73.9 29.925 7.41 0.0 0 0.00 0.00 0.00 0.00
08/31/26 9:35:22 PM 29 0.0 20.0 66 56 76.8 73.8 29.925 7.41 0.0 0 0.00 0.00 0.00 0.00
08/31/26 9:36:33 PM 32 0.0 20.0 66 56 76.7 73.8 29.924 7.41 0.0 0 0.00 0.00 0.00 0.00
08/31/26 9:37:23 PM 32 0.0 20.0 66 56 76.7 73.7 29.925 7.41 0.0 0 0.00 0.00 0.00 0.00
08/31/26 9:38:16 PM 30 0.0 20.0 66 56 76.7 73.7 29.927 7.41 0.0 0 0.00 0.00 0.00 0.00
08/31/26 9:39:27 PM 29 0.0 20.0 66 56 76.7 73.7 29.925 7.41 0.0 0 0.00 0.00 0.00 0.00
08/31/26 9:40:35 PM 34 0.0 20.0 66 56 76.7 73.6 29.928 7.41 0.0 0 0.00 0.00 0.00 0.00
08/31/26 9:41:28 PM 28 0.0 20.0 66 56 76.6 73.6 29.928 7.41 0.0 0 0.00 0.00 0.00 0.00
08/31/26 9:42:17 PM 32 0.0 20.0 66 56 76.6 73.5 29.930 7.41 0.0 0 0.00 0.00 0.00 0.00
08/31/26 9:43:29 PM 31 0.0 20.0 66 57 76.6 73.5 29.927 7.41 0.0 0 0.00 0.00 0.00 0.00
08/31/26 9:44:21 PM 31 0.0 20.0 66 57 76.6 73.4 29.927 7.41 0.0 0 0.00 0.00 0.00 0.00
08/31/26 9:45:33 PM 31 0.0 20.0 66 57 76.6 73.3 29.929 7.41 0.0 0 0.00 0.00 0.00 0.00
08/31/26 9:46:22 PM 32 0.0 20.0 66 57 76.5 73.3 29.930 7.41 0.0 0 0.00 0.00 0.00 0.00
08/31/26 9:47:34 PM 32 0.0 20.0 66 57 76.5 73.3 29.929 7.41 0.0 0 0.00 0.00 0.00 0.00
08/31/26 9:48:26 PM 28 0.0 20.0 66 57 76.5 73.2 29.930 7.41 0.0 0 0.00 0.00 0.00 0.00
08/31/26 9:49:19 PM 32 0.0 20.0 66 57 76.5 73.2 29.926 7.41 0.0 0 0.00 0.00 0.00 0.00
08/31/26 9:50:27 PM 29 0.0 20.0 66 56 76.4 73.1 29.930 7.41 0.0 0 0.00 0.00 0.00 0.00
08/31/26 9:51:17 PM 29 0.0 20.0 66 56 76.4 73.0 29.930 7.41 0.0 0 0.00 0.00 0.00 0.00
08/31/26 9:52:32 PM 32 0.0 20.0 66 56 76.4 73.0 29.930 7.41 0.0 0 0.00 0.00 0.00 0.00
08/31/26 9:53:22 PM 29 0.0 20.0 66 57 76.4 72.9 29.929 7.41 0.0 0 0.00 0.00 0.00 0.00
08/31/26 9:54:33 PM 29 0.0 20.0 66 57 76.4 72.9 29.929 7.41 0.0 0 0.00 0.00 0.00 0.00
08/31/26 9:55:26 PM 30 0.0 20.0 66 57 76.4 72.9 29.928 7.41 0.0 0 0.00 0.00 0.00 0.00
08/31/26 9:56:34 PM 32 0.0 20.0 66 57 76.4 72.8 29.930 7.41 0.0 0 0.00 0.00 0.00 0.00
08/31/26 9:57:24 PM 31 0.0 20.0 66 57 76.4 72.8 29.929 7.41 0.0 0 0.00 0.00 0.00 0.00
08/31/26 9:58:17 PM 28 0.0 20.0 66 58 76.4 72.7 29.931 7.41 0.0 0 0.00 0.00 0.00 0.00
08/31/26 9:59:28 PM 32 0.0 20.0 66 58 76.3 72.7 29.932 7.41 0.0 0 0.00 0.00 0.00 0.00
08/31/26 10:00:24 PM 32 0.0 20.0 66 58 76.3 72.7 29.929 7.41 0.0 0 0.00 0.00 0.00 0.00
08/31/26 10:01:29 PM 32 0.0 20.0 66 58 76.3 72.6 29.929 7.41 0.0 0 0.00 0.00 0.00 0.00
08/31/26 10:02:22 PM 29 0.0 20.0 66 58 76.3 72.6 29.931 7.41 0.0 0 0.00 0.00 0.00 0.00
08/31/26 10:03:33 PM 29 0.0 20.0 66 58 76.2 72.5 29.933 7.41 0.0 0 0.00 0.00 0.00 0.00
08/31/26 10:04:26 PM 32 0.0 20.0 66 59 76.2 72.5 29.930 7.41 0.0 0 0.00 0.00 0.00 0.00
08/31/26 10:05:19 PM 29 0.0 20.0 66 59 76.2 72.5 29.932 7.41 0.0 0 0.00 0.00 0.00 0.00
08/31/26 10:06:24 PM 29 0.0 20.0 66 59 76.2 72.4 29.931 7.41 0.0 0 0.00 0.00 0.00 0.00
08/31/26 10:07:17 PM 30 0.0 20.0 66 59 76.2 72.4 29.932 7.41 0.0 0 0.00 0.00 0.00 0.00
08/31/26 10:08:28 PM 32 0.0 20.0 66 59 76.1 72.4 29.931 7.41 0.0 0 0.00 0.00 0.00 0.00
08/31/26 10:09:21 PM 29 0.0 20.0 66 58 76.1 72.3 29.930 7.41 0.0 0 0.00 0.00 0.00 0.00
08/31/26 10:10:32 PM 32 0.0 20.0 66 59 76.1 72.2 29.932 7.41 0.0 0 0.00 0.00 0.00 0.00
08/31/26 10:11:25 PM 31 0.0 20.0 66 59 76.0 72.2 29.929 7.41 0.0 0 0.00 0.00 0.00 0.00
08/31/26 10:12:30 PM 29 0.0 20.0 66 59 76.0 72.1 29.934 7.41 0.0 0 0.00 0.00 0.00 0.00
08/31/26 10:13:23 PM 32 0.0 20.0 66 59 76.0 72.1 29.932 7.41 0.0 0 0.00 0.00 0.00 0.00
08/31/26 10:14:37 PM 32 0.0 20.0 66 59 75.9 72.0 29.930 7.41 0.0 0 0.00 0.00 0.00 0.00
08/31/26 10:15:27 PM 30 0.0 20.0 66 59 76.0 72.0 29.931 7.41 0.0 0 0.00 0.00 0.00 0.00
08/31/26 10:16:17 PM 28 0.0 20.0 66 59 75.9 72.0 29.931 7.41 0.0 0 0.00 0.00 0.00 0.00
08/31/26 10:17:25 PM 31 0.0 20.0 66 59 75.9 71.9 29.932 7.41 0.0 0 0.00 0.00 0.00 0.00
08/31/26 10:18:18 PM 32 0.0 20.0 66 59 75.9 71.9 29.929 7.41 0.0 0 0.00 0.00 0.00 0.00
08/31/26 10:19:29 PM 26 0.0 20.0 66 60 75.9 71.9 29.932 7.41 0.0 0 0.00 0.00 0.00 0.00
08/31/26 10:20:22 PM 32 0.0 20.0 66 60 75.9 71.9 29.933 7.41 0.0 0 0.00 0.00 0.00 0.00
08/31/26 10:21:33 PM 29 0.0 20.0 66 60 75.9 71.9 29.932 7.41 0.0 0 0.00 0.00 0.00 0.00
08/31/26 10:22:19 PM 32 0.0 20.0 66 60 75.9 71.8 29.931 7.41 0.0 0 0.00 0.00 0.00 0.00
08/31/26 10:23:34 PM 32 0.0 20.0 66 60 75.9 71.8 29.932 7.41 0.0 0 0.00 0.00 0.00 0.00
08/31/26 10:24:23 PM 29 3.0 20.0 66 60 75.9 71.7 29.930 7.41 0.0 0 0.00 0.00 0.00 0.00
08/31/26 10:25:37 PM 30 3.0 20.0 66 61 75.9 71.7 29.932 7.41 0.0 0 0.00 0.00 0.00 0.00
08/31/26 10:26:27 PM 31 2.0 20.0 66 61 75.9 71.7 29.932 7.41 0.0 0 0.00 0.00 0.00 0.00
08/31/26 10:27:20 PM 34 2.0 20.0 66 61 75.9 71.7 29.929 7.41 0.0 0 0.00 0.00 0.00 0.00
08/31/26 10:28:28 PM 29 2.0 20.0 66 61 75.9 71.7 29.930 7.41 0.0 0 0.00 0.00 0.00 0.00
08/31/26 10:29:18 PM 34 2.0 20.0 66 61 75.9 71.7 29.931 7.41 0.0 0 0.00 0.00 0.00 0.00
08/31/26 10:30:32 PM 32 1.0 20.0 66 61 75.9 71.6 29.932 7.41 0.0 0 0.00 0.00 0.00 0.00
08/31/26 10:31:22 PM 30 1.0 20.0 66 61 75.9 71.6 29.932 7.41 0.0 0 0.00 0.00 0.00 0.00
08/31/26 10:32:33 PM 32 2.0 20.0 66 61 75.9 71.5 29.931 7.41 0.0 0 0.00 0.00 0.00 0.00
08/31/26 10:33:23 PM 32 2.0 20.0 66 60 75.9 71.5 29.933 7.41 0.0 0 0.00 0.00 0.00 0.00
08/31/26 10:34:34 PM 31 1.0 20.0 66 61 75.9 71.4 29.931 7.41 0.0 0 0.00 0.00 0.00 0.00
08/31/26 10:35:24 PM 29 1.0 20.0 66 61 75.9 71.4 29.931 7.41 0.0 0 0.00 0.00 0.00 0.00
08/31/26 10:36:17 PM 32 1.0 20.0 66 60 75.9 71.3 29.934 7.41 0.0 0 0.00 0.00 0.00 0.00
08/31/26 10:37:28 PM 29 2.0 20.0 66 60 75.9 71.3 29.932 7.41 0.0 0 0.00 0.00 0.00 0.00
08/31/26 10:38:36 PM 32 2.0 20.0 66 60 75.9 71.2 29.931 7.41 0.0 0 0.00 0.00 0.00 0.00
08/31/26 10:39:29 PM 32 1.0 20.0 66 60 75.8 71.2 29.931 7.41 0.0 0 0.00 0.00 0.00 0.00
08/31/26 10:40:19 PM 34 1.0 20.0 66 60 75.9 71.1 29.932 7.41 0.0 0 0.00 0.00 0.00 0.00
08/31/26 10:41:33 PM 30 1.0 20.0 66 60 75.9 71.0 29.931 7.41 0.0 0 0.00 0.00 0.00 0.00
08/31/26 10:42:23 PM 26 2.0 20.0 66 60 75.8 71.0 29.929 7.41 0.0 0 0.00 0.00 0.00 0.00
08/31/26 10:43:31 PM 30 2.0 20.0 66 61 75.9 70.9 29.932 7.41 0.0 0 0.00 0.00 0.00 0.00
08/31/26 10:44:21 PM 32 2.0 20.0 66 61 75.9 70.8 29.931 7.41 0.0 0 0.00 0.00 0.00 0.00
08/31/26 10:45:35 PM 30 2.0 20.0 66 61 75.9 70.8 29.931 7.41 0.0 0 0.00 0.00 0.00 0.00
08/31/26 10:46:25 PM 32 2.0 20.0 66 61 75.9 70.8 29.931 7.41 0.0 0 0.00 0.00 0.00 0.00
08/31/26 10:47:18 PM 32 2.0 20.0 66 61 75.9 70.7 29.932 7.41 0.0 0 0.00 0.00 0.00 0.00
08/31/26 10:48:32 PM 32 1.0 20.0 66 62 75.9 70.7 29.930 7.41 0.0 0 0.00 0.00 0.00 0.00
08/31/26 10:49:19 PM 32 1.0 20.0 66 62 75.9 70.6 29.931 7.41 0.0 0 0.00 0.00 0.00 0.00
08/31/26 10:50:30 PM 31 0.0 20.0 66 62 75.9 70.6 29.932 7.41 0.0 0 0.00 0.00 0.00 0.00
08/31/26 10:51:23 PM 32 0.0 20.0 66 62 75.9 70.6 29.934 7.41 0.0 0 0.00 0.00 0.00 0.00
08/31/26 10:52:34 PM 30 0.0 20.0 66 62 75.9 70.5 29.933 7.41 0.0 0 0.00 0.00 0.00 0.00
08/31/26 10:53:27 PM 30 0.0 20.0 66 62 75.9 70.5 29.934 7.41 0.0 0 0.00 0.00 0.00 0.00
08/31/26 10:54:35 PM 28 0.0 20.0 66 62 75.9 70.5 29.934 7.41 0.0 0 0.00 0.00 0.00 0.00
08/31/26 10:55:25 PM 32 0.0 20.0 66 62 75.9 70.4 29.933 7.41 0.0 0 0.00 0.00 0.00 0.00
08/31/26 10:56:18 PM 32 0.0 20.0 66 62 75.9 70.4 29.933 7.41 0.0 0 0.00 0.00 0.00 0.00
08/31/26 10:57:29 PM 31 0.0 20.0 66 62 75.9 70.4 29.934 7.41 0.0 0 0.00 0.00 0.00 0.00
08/31/26 10:58:22 PM 32 0.0 20.0 66 62 75.9 70.3 29.932 7.41 0.0 0 0.00 0.00 0.00 0.00
08/31/26 10:59:30 PM 31 0.0 20.0 66 62 75.8 70.3 29.931 7.41 0.0 0 0.00 0.00 0.00 0.00
08/31/26 11:00:23 PM 28 0.0 20.0 66 62 75.9 70.3 29.933 7.41 0.0 0 0.00 0.00 0.00 0.00
08/31/26 11:01:34 PM 30 0.0 20.0 66 62 75.8 70.2 29.934 7.41 0.0 0 0.00 0.00 0.00 0.00
08/31/26 11:02:24 PM 32 0.0 20.0 66 62 75.9 70.2 29.934 7.41 0.0 0 0.00 0.00 0.00 0.00
08/31/26 11:03:35 PM 32 0.0 20.0 66 61 75.9 70.1 29.934 7.41 0.0 0 0.00 0.00 0.00 0.00
08/31/26 11:04:28 PM 32 0.0 20.0 66 61 75.9 70.0 29.932 7.41 0.0 0 0.00 0.00 0.00 0.00
08/31/26 11:05:36 PM 34 0.0 20.0 66 61 75.8 69.9 29.931 7.41 0.0 0 0.00 0.00 0.00 0.00
08/31/26 11:06:29 PM 31 0.0 20.0 66 61 75.8 69.9 29.932 7.41 0.0 0 0.00 0.00 0.00 0.00
08/31/26 11:07:19 PM 28 0.0 20.0 66 61 75.8 69.8 29.936 7.41 0.0 0 0.00 0.00 0.00 0.00
08/31/26 11:08:33 PM 30 0.0 20.0 66 61 75.8 69.8 29.934 7.41 0.0 0 0.00 0.00 0.00 0.00
08/31/26 11:09:23 PM 29 0.0 20.0 66 61 75.8 69.8 29.932 7.41 0.0 0 0.00 0.00 0.00 0.00
08/31/26 11:10:32 PM 32 0.0 20.0 66 61 75.8 69.7 29.932 7.41 0.0 0 0.00 0.00 0.00 0.00
08/31/26 11:11:24 PM 32 0.0 20.0 66 61 75.8 69.7 29.935 7.41 0.0 0 0.00 0.00 0.00 0.00
08/31/26 11:12:36 PM 28 0.0 20.0 66 62 75.7 69.6 29.933 7.41 0.0 0 0.00 0.00 0.00 0.00
08/31/26 11:13:28 PM 29 0.0 20.0 66 62 75.7 69.5 29.933 7.41 0.0 0 0.00 0.00 0.00 0.00
08/31/26 11:14:21 PM 32 0.0 20.0 66 62 75.7 69.4 29.937 7.41 0.0 0 0.00 0.00 0.00 0.00
08/31/26 11:15:51 PM 32 0.0 20.0 66 62 75.7 69.4 29.930 7.41 0.0 0 0.00 0.00 0.00 0.00
08/31/26 11:16:22 PM 32 0.0 20.0 66 62 75.7 69.3 29.933 7.41 0.0 0 0.00 0.00 0.00 0.00
08/31/26 11:17:33 PM 32 0.0 20.0 66 62 75.7 69.2 29.935 7.41 0.0 0 0.00 0.00 0.00 0.00
08/31/26 11:18:26 PM 30 0.0 20.0 66 62 75.7 69.2 29.933 7.41 0.0 0 0.00 0.00 0.00 0.00
08/31/26 11:19:19 PM 28 0.0 20.0 66 62 75.7 69.1 29.932 7.41 0.0 0 0.00 0.00 0.00 0.00
08/31/26 11:20:30 PM 32 0.0 20.0 66 62 75.7 69.1 29.931 7.41 0.0 0 0.00 0.00 0.00 0.00
08/31/26 11:21:17 PM 29 0.0 20.0 66 62 75.7 69.1 29.930 7.41 0.0 0 0.00 0.00 0.00 0.00
08/31/26 11:22:31 PM 31 0.0 20.0 66 62 75.7 69.0 29.930 7.41 0.0 0 0.00 0.00 0.00 0.00
08/31/26 11:23:21 PM 34 0.0 20.0 66 62 75.6 69.0 29.934 7.41 0.0 0 0.00 0.00 0.00 0.00
08/31/26 11:24:32 PM 28 0.0 20.0 66 62 75.7 69.0 29.933 7.41 0.0 0 0.00 0.00 0.00 0.00
08/31/26 11:25:26 PM 29 0.0 20.0 66 62 75.7 68.9 29.933 7.41 0.0 0 0.00 0.00 0.00 0.00
08/31/26 11:26:18 PM 31 0.0 20.0 66 62 75.6 68.9 29.933 7.41 0.0 0 0.00 0.00 0.00 0.00
08/31/26 11:27:24 PM 32 0.0 20.0 66 63 75.6 68.8 29.933 7.41 0.0 0 0.00 0.00 0.00 0.00
08/31/26 11:28:17 PM 30 0.0 20.0 66 63 75.6 68.7 29.932 7.41 0.0 0 0.00 0.00 0.00 0.00
08/31/26 11:29:31 PM 34 0.0 20.0 66 63 75.6 68.7 29.933 7.41 0.0 0 0.00 0.00 0.00 0.00
08/31/26 11:30:24 PM 31 0.0 20.0 66 63 75.6 68.6 29.933 7.41 0.0 0 0.00 0.00 0.00 0.00
08/31/26 11:31:35 PM 32 0.0 20.0 66 63 75.6 68.6 29.933 7.41 0.0 0 0.00 0.00 0.00 0.00
08/31/26 11:32:22 PM 32 0.0 20.0 66 63 75.6 68.6 29.935 7.41 0.0 0 0.00 0.00 0.00 0.00
08/31/26 11:33:33 PM 31 0.0 20.0 66 62 75.6 68.5 29.934 7.41 0.0 0 0.00 0.00 0.00 0.00
08/31/26 11:34:26 PM 31 0.0 20.0 66 62 75.6 68.4 29.934 7.41 0.0 0 0.00 0.00 0.00 0.00
08/31/26 11:35:19 PM 29 0.0 20.0 66 62 75.6 68.4 29.935 7.41 0.0 0 0.00 0.00 0.00 0.00
08/31/26 11:36:31 PM 28 0.0 20.0 66 61 75.6 68.4 29.933 7.41 0.0 0 0.00 0.00 0.00 0.00
08/31/26 11:37:18 PM 29 0.0 20.0 66 62 75.6 68.4 29.937 7.41 0.0 0 0.00 0.00 0.00 0.00
08/31/26 11:38:29 PM 34 0.0 20.0 66 62 75.6 68.4 29.935 7.41 0.0 0 0.00 0.00 0.00 0.00
08/31/26 11:39:22 PM 34 0.0 20.0 66 62 75.6 68.3 29.935 7.41 0.0 0 0.00 0.00 0.00 0.00
08/31/26 11:40:33 PM 31 0.0 20.0 66 62 75.6 68.3 29.935 7.41 0.0 0 0.00 0.00 0.00 0.00
08/31/26 11:41:26 PM 29 0.0 20.0 66 62 75.6 68.3 29.934 7.41 0.0 0 0.00 0.00 0.00 0.00
08/31/26 11:42:15 PM 32 0.0 20.0 66 62 75.5 68.3 29.935 7.41 0.0 0 0.00 0.00 0.00 0.00
08/31/26 11:43:24 PM 30 0.0 20.0 66 62 75.5 68.3 29.933 7.41 0.0 0 0.00 0.00 0.00 0.00
08/31/26 11:44:17 PM 26 0.0 20.0 66 62 75.6 68.3 29.935 7.41 0.0 0 0.00 0.00 0.00 0.00
08/31/26 11:45:31 PM 31 0.0 20.0 66 62 75.5 68.3 29.933 7.41 0.0 0 0.00 0.00 0.00 0.00
08/31/26 11:46:21 PM 31 0.0 20.0 66 62 75.6 68.3 29.934 7.41 0.0 0 0.00 0.00 0.00 0.00
08/31/26 11:47:35 PM 30 0.0 20.0 66 62 75.5 68.3 29.934 7.41 0.0 0 0.00 0.00 0.00 0.00
08/31/26 11:48:22 PM 32 0.0 20.0 66 62 75.6 68.2 29.934 7.41 0.0 0 0.00 0.00 0.00 0.00
08/31/26 11:49:33 PM 29 0.0 20.0 66 62 75.6 68.2 29.934 7.41 0.0 0 0.00 0.00 0.00 0.00
08/31/26 11:50:26 PM 32 0.0 20.0 66 62 75.6 68.2 29.932 7.41 0.0 0 0.00 0.00 0.00 0.00
08/31/26 11:51:19 PM 26 0.0 20.0 66 62 75.5 68.2 29.933 7.41 0.0 0 0.00 0.00 0.00 0.00
08/31/26 11:52:30 PM 30 0.0 20.0 66 62 75.5 68.1 29.931 7.41 0.0 0 0.00 0.00 0.00 0.00
08/31/26 11:53:17 PM 29 0.0 20.0 66 62 75.5 68.1 29.932 7.41 0.0 0 0.00 0.00 0.00 0.00
08/31/26 11:54:28 PM 34 0.0 20.0 66 62 75.5 68.0 29.932 7.41 0.0 0 0.00 0.00 0.00 0.00
08/31/26 11:55:21 PM 34 0.0 20.0 66 62 75.5 68.0 29.931 7.41 0.0 0 0.00 0.00 0.00 0.00
08/31/26 11:56:32 PM 28 0.0 20.0 66 63 75.5 68.0 29.932 7.41 0.0 0 0.00 0.00 0.00 0.00
08/31/26 11:57:25 PM 32 0.0 20.0 66 63 75.5 68.0 29.933 7.41 0.0 0 0.00 0.00 0.00 0.00
08/31/26 11:58:18 PM 31 0.0 20.0 66 63 75.5 68.0 29.932 7.41 0.0 0 0.00 0.00 0.00 0.00

University Police wind advisory reference

For campus closure information please call the campus Emergency Hotline at (909) 537-5999

© All rights reserved. Unauthorized duplication or distribution is prohibited

Never base important decisions on this or any weather information obtained from the Internet

California State University, San Bernardino
5500 University Parkway, San Bernardino, CA. 92407
Phone: (909) 537-5108, Email: Weather Webmaster
Last Updated: